QPF
0.11 0.12 0.11 0.10 0.09 0.07 0.06 0.05 0.06 0.08 0.09 0.09 0.08 0.05 0.03 0.03 0.03 0.03 0.03 0.03 0.02 0.02 0.02 0.01 0.02 0.02 0.02 0.03 0.04 0.05 0.05 0.05 0.06 0.08 0.10 0.09 0.08 0.07
0.09 0.10 0.09 0.07 0.06 0.05 0.04 0.04 0.04 0.07 0.08 0.07 0.07 0.06 0.05 0.03 0.02 0.03 0.04 0.04 0.02 0.02 0.01 0.01 0.01 0.01 0.02 0.02 0.03 0.04 0.05 0.05 0.06 0.07 0.08 0.09 0.09 0.08
0.06 0.07 0.07 0.07 0.05 0.03 0.03 0.03 0.04 0.06 0.07 0.07 0.06 0.07 0.08 0.07 0.06 0.06 0.05 0.05 0.03 0.02 0.02 0.02 0.02 0.02 0.02 0.03 0.04 0.04 0.04 0.05 0.06 0.07 0.07 0.07 0.08 0.08
0.05 0.05 0.05 0.06 0.07 0.07 0.06 0.06 0.07 0.07 0.06 0.07 0.07 0.08 0.08 0.08 0.07 0.06 0.04 0.04 0.04 0.04 0.03 0.03 0.03 0.03 0.03 0.04 0.04 0.03 0.03 0.03 0.03 0.04 0.04 0.03 0.04 0.04
0.04 0.04 0.05 0.05 0.06 0.08 0.08 0.09 0.10 0.08 0.08 0.08 0.07 0.07 0.06 0.06 0.06 0.04 0.03 0.04 0.03 0.03 0.03 0.03 0.03 0.03 0.03 0.03 0.02 0.01 0.01 0.01 0.01 0.01 0.02 0.02 0.02 0.02
0.04 0.05 0.05 0.05 0.05 0.06 0.06 0.07 0.09 0.09 0.09 0.09 0.07 0.06 0.05 0.05 0.07 0.06 0.05 0.05 0.05 0.05 0.05 0.05 0.05 0.04 0.03 0.03 0.02 0.02 0.01 0.01 0.01 0.01 0.01 0.01 0.02 0.02
0.06 0.06 0.06 0.05 0.05 0.05 0.05 0.06 0.06 0.07 0.07 0.08 0.06 0.05 0.04 0.05 0.05 0.04 0.04 0.04 0.04 0.04 0.04 0.04 0.04 0.04 0.03 0.03 0.03 0.03 0.02 0.02 0.02 0.02 0.02 0.01 0.01 0.02
0.07 0.08 0.07 0.05 0.04 0.03 0.03 0.04 0.05 0.05 0.05 0.05 0.05 0.04 0.04 0.03 0.04 0.04 0.04 0.04 0.04 0.04 0.04 0.04 0.04 0.04 0.03 0.03 0.03 0.04 0.03 0.02 0.02 0.03 0.02 0.02 0.01 0.01
0.06 0.06 0.05 0.03 0.03 0.02 0.01 0.01 0.02 0.02 0.03 0.04 0.03 0.03 0.03 0.03 0.03 0.03 0.04 0.04 0.03 0.03 0.03 0.03 0.03 0.03 0.02 0.01 0.02 0.03 0.03 0.02 0.01 0.01 0.02 0.02 0.02 0.01
0.04 0.04 0.03 0.02 0.03 0.03 0.02 0.01 0.01 0.01 0.01 0.02 0.03 0.03 0.03 0.03 0.03 0.03 0.04 0.04 0.03 0.03 0.03 0.02 0.02 0.02 0.02 0.02 0.02 0.03 0.03 0.03 0.02 0.01 0.02 0.03 0.03 0.02
0.03 0.02 0.02 0.02 0.02 0.01 0.02 0.03 0.02 0.02 0.01 0.01 0.02 0.02 0.02 0.02 0.02 0.02 0.03 0.04 0.04 0.03 0.03 0.03 0.02 0.02 0.03 0.03 0.03 0.03 0.04 0.04 0.04 0.03 0.03 0.03 0.03 0.03
0.04 0.02 0.01 0.02 0.02 0.00 0.02 0.03 0.03 0.03 0.02 0.02 0.01 0.01 0.01 0.01 0.01 0.02 0.03 0.04 0.04 0.03 0.03 0.03 0.04 0.04 0.03 0.03 0.04 0.04 0.04 0.04 0.04 0.04 0.05 0.05 0.04 0.03
0.03 0.03 0.03 0.02 0.02 0.01 0.02 0.02 0.02 0.02 0.02 0.02 0.02 0.01 0.01 0.02 0.02 0.02 0.03 0.03 0.04 0.03 0.02 0.04 0.04 0.05 0.05 0.04 0.04 0.05 0.05 0.06 0.04 0.04 0.04 0.05 0.07 0.07
0.04 0.03 0.03 0.02 0.02 0.02 0.01 0.02 0.01 0.01 0.01 0.01 0.02 0.01 0.01 0.02 0.02 0.02 0.03 0.03 0.02 0.02 0.02 0.03 0.04 0.04 0.05 0.04 0.04 0.04 0.05 0.05 0.05 0.05 0.05 0.05 0.06 0.08
0.03 0.02 0.01 0.01 0.01 0.01 0.01 0.01 0.02 0.02 0.02 0.02 0.02 0.02 0.02 0.02 0.02 0.02 0.02 0.02 0.01 0.01 0.01 0.02 0.03 0.03 0.04 0.05 0.05 0.04 0.05 0.06 0.07 0.07 0.07 0.06 0.05 0.07
0.02 0.02 0.01 0.01 0.01 0.01 0.01 0.01 0.01 0.02 0.02 0.02 0.03 0.03 0.03 0.03 0.02 0.02 0.02 0.02 0.01 0.01 0.01 0.01 0.03 0.05 0.05 0.05 0.05 0.05 0.05 0.06 0.06 0.07 0.08 0.08 0.07 0.06
0.03 0.03 0.02 0.02 0.01 0.02 0.02 0.02 0.02 0.02 0.02 0.03 0.04 0.03 0.03 0.03 0.03 0.02 0.02 0.02 0.01 0.01 0.02 0.02 0.03 0.04 0.04 0.04 0.04 0.04 0.04 0.05 0.06 0.07 0.07 0.07 0.06 0.06
0.02 0.04 0.03 0.02 0.02 0.03 0.03 0.03 0.03 0.03 0.03 0.03 0.03 0.03 0.03 0.02 0.02 0.02 0.02 0.02 0.01 0.01 0.01 0.02 0.02 0.03 0.03 0.03 0.02 0.02 0.03 0.03 0.04 0.05 0.06 0.06 0.06 0.05
0.03 0.04 0.04 0.04 0.04 0.04 0.05 0.05 0.05 0.05 0.04 0.04 0.03 0.03 0.03 0.02 0.02 0.02 0.02 0.01 0.01 0.01 0.01 0.01 0.02 0.02 0.03 0.02 0.01 0.01 0.01 0.02 0.04 0.04 0.05 0.05 0.04 0.04
0.03 0.04 0.04 0.04 0.05 0.05 0.05 0.05 0.05 0.05 0.04 0.03 0.03 0.03 0.03 0.03 0.03 0.02 0.02 0.02 0.01 0.01 0.01 0.01 0.01 0.02 0.02 0.02 0.01 0.01 0.01 0.01 0.03 0.03 0.03 0.03 0.04 0.04
0.02 0.02 0.03 0.03 0.03 0.03 0.03 0.03 0.03 0.03 0.03 0.03 0.03 0.02 0.02 0.02 0.02 0.02 0.02 0.02 0.01 0.02 0.02 0.02 0.01 0.01 0.01 0.02 0.02 0.02 0.02 0.01 0.02 0.03 0.03 0.04 0.04 0.04
0.03 0.02 0.02 0.02 0.02 0.02 0.02 0.02 0.02 0.02 0.03 0.03 0.03 0.03 0.03 0.03 0.03 0.02 0.02 0.03 0.03 0.03 0.03 0.02 0.02 0.02 0.02 0.02 0.02 0.02 0.03 0.02 0.02 0.02 0.02 0.03 0.03 0.03
0.01 0.02 0.02 0.02 0.02 0.03 0.02 0.02 0.01 0.01 0.02 0.03 0.03 0.03 0.03 0.02 0.03 0.03 0.03 0.04 0.04 0.04 0.04 0.04 0.04 0.03 0.03 0.03 0.03 0.03 0.03 0.04 0.04 0.04 0.03 0.02 0.02 0.02
MSLP
1009.45 1009.92 1010.38 1010.80 1011.18 1011.48 1011.70 1011.85 1011.93 1011.97 1011.97 1011.97 1011.98 1012.05 1012.18 1012.38 1012.68 1013.06 1013.52 1014.05 1014.61 1015.20 1015.77 1016.30 1016.78 1017.20 1017.54 1017.83 1018.08 1018.30 1018.52 1018.74 1018.97 1019.22 1019.47 1019.72 1019.95 1020.16
1008.60 1009.01 1009.43 1009.84 1010.21 1010.55 1010.83 1011.06 1011.22 1011.32 1011.39 1011.43 1011.46 1011.52 1011.62 1011.78 1012.03 1012.37 1012.80 1013.30 1013.86 1014.44 1015.03 1015.59 1016.10 1016.55 1016.94 1017.27 1017.55 1017.80 1018.04 1018.28 1018.53 1018.78 1019.03 1019.28 1019.50 1019.71
1007.81 1008.14 1008.49 1008.86 1009.23 1009.59 1009.92 1010.22 1010.46 1010.66 1010.80 1010.91 1010.98 1011.06 1011.16 1011.31 1011.53 1011.83 1012.22 1012.68 1013.21 1013.78 1014.36 1014.92 1015.44 1015.91 1016.32 1016.67 1016.98 1017.26 1017.52 1017.77 1018.03 1018.28 1018.53 1018.77 1018.99 1019.18
1007.11 1007.34 1007.61 1007.91 1008.25 1008.61 1008.98 1009.34 1009.67 1009.95 1010.19 1010.38 1010.53 1010.66 1010.79 1010.95 1011.15 1011.43 1011.78 1012.20 1012.69 1013.22 1013.76 1014.30 1014.80 1015.26 1015.66 1016.02 1016.34 1016.63 1016.90 1017.17 1017.44 1017.70 1017.95 1018.19 1018.40 1018.59
1006.52 1006.63 1006.79 1007.01 1007.29 1007.64 1008.02 1008.42 1008.82 1009.19 1009.53 1009.82 1010.06 1010.26 1010.44 1010.64 1010.86 1011.12 1011.45 1011.83 1012.27 1012.74 1013.23 1013.70 1014.16 1014.58 1014.96 1015.30 1015.61 1015.90 1016.18 1016.45 1016.73 1017.00 1017.27 1017.52 1017.74 1017.93
1006.03 1006.01 1006.06 1006.18 1006.39 1006.69 1007.06 1007.48 1007.93 1008.38 1008.80 1009.18 1009.52 1009.81 1010.07 1010.32 1010.57 1010.85 1011.16 1011.50 1011.89 1012.29 1012.71 1013.11 1013.50 1013.85 1014.18 1014.48 1014.77 1015.04 1015.33 1015.61 1015.91 1016.20 1016.49 1016.76 1017.00 1017.21
1005.63 1005.50 1005.43 1005.46 1005.58 1005.82 1006.15 1006.57 1007.04 1007.53 1008.02 1008.48 1008.91 1009.29 1009.63 1009.94 1010.24 1010.54 1010.85 1011.17 1011.50 1011.84 1012.18 1012.50 1012.80 1013.08 1013.34 1013.59 1013.84 1014.10 1014.38 1014.67 1014.99 1015.31 1015.63 1015.93 1016.20 1016.44
1005.32 1005.10 1004.95 1004.88 1004.92 1005.08 1005.37 1005.75 1006.21 1006.72 1007.25 1007.77 1008.26 1008.72 1009.13 1009.50 1009.85 1010.17 1010.49 1010.79 1011.08 1011.36 1011.63 1011.87 1012.08 1012.28 1012.48 1012.67 1012.88 1013.11 1013.38 1013.68 1014.01 1014.36 1014.72 1015.06 1015.36 1015.63
1005.11 1004.84 1004.62 1004.49 1004.47 1004.56 1004.79 1005.12 1005.55 1006.04 1006.57 1007.11 1007.64 1008.14 1008.60 1009.02 1009.41 1009.76 1010.08 1010.37 1010.64 1010.87 1011.07 1011.24 1011.39 1011.52 1011.65 1011.78 1011.95 1012.16 1012.41 1012.71 1013.05 1013.42 1013.80 1014.17 1014.51 1014.80
1004.99 1004.73 1004.50 1004.35 1004.28 1004.33 1004.49 1004.77 1005.15 1005.60 1006.09 1006.62 1007.14 1007.65 1008.13 1008.57 1008.98 1009.34 1009.67 1009.95 1010.20 1010.40 1010.56 1010.69 1010.78 1010.86 1010.93 1011.02 1011.14 1011.31 1011.54 1011.82 1012.16 1012.52 1012.91 1013.28 1013.63 1013.94
1005.00 1004.78 1004.59 1004.44 1004.37 1004.39 1004.51 1004.73 1005.04 1005.43 1005.87 1006.35 1006.83 1007.32 1007.78 1008.21 1008.62 1008.98 1009.30 1009.58 1009.82 1010.00 1010.14 1010.24 1010.30 1010.34 1010.38 1010.43 1010.51 1010.64 1010.83 1011.07 1011.36 1011.70 1012.05 1012.40 1012.73 1013.03
1005.10 1004.97 1004.85 1004.75 1004.69 1004.71 1004.80 1004.97 1005.22 1005.54 1005.91 1006.32 1006.74 1007.17 1007.59 1007.99 1008.36 1008.71 1009.02 1009.29 1009.52 1009.70 1009.83 1009.92 1009.97 1009.99 1010.00 1010.02 1010.06 1010.14 1010.27 1010.45 1010.67 1010.94 1011.23 1011.52 1011.79 1012.04
1005.28 1005.25 1005.21 1005.17 1005.15 1005.17 1005.25 1005.39 1005.58 1005.84 1006.13 1006.46 1006.81 1007.17 1007.53 1007.88 1008.22 1008.53 1008.82 1009.07 1009.29 1009.47 1009.60 1009.69 1009.74 1009.76 1009.76 1009.74 1009.74 1009.76 1009.82 1009.92 1010.05 1010.22 1010.41 1010.61 1010.80 1010.97
1005.49 1005.54 1005.56 1005.58 1005.60 1005.64 1005.71 1005.83 1005.98 1006.18 1006.41 1006.67 1006.95 1007.24 1007.54 1007.83 1008.12 1008.39 1008.65 1008.88 1009.09 1009.26 1009.40 1009.49 1009.55 1009.56 1009.55 1009.51 1009.47 1009.43 1009.41 1009.42 1009.45 1009.51 1009.58 1009.67 1009.76 1009.85
1005.65 1005.74 1005.81 1005.86 1005.90 1005.95 1006.02 1006.12 1006.24 1006.40 1006.59 1006.80 1007.03 1007.27 1007.51 1007.75 1007.98 1008.21 1008.43 1008.64 1008.82 1008.99 1009.12 1009.21 1009.27 1009.29 1009.26 1009.21 1009.14 1009.05 1008.96 1008.88 1008.82 1008.77 1008.75 1008.73 1008.73 1008.73
1005.70 1005.79 1005.85 1005.90 1005.94 1005.99 1006.05 1006.13 1006.24 1006.38 1006.55 1006.73 1006.93 1007.13 1007.33 1007.53 1007.72 1007.91 1008.09 1008.26 1008.42 1008.56 1008.68 1008.76 1008.82 1008.83 1008.81 1008.75 1008.65 1008.54 1008.41 1008.28 1008.15 1008.03 1007.93 1007.84 1007.77 1007.71
1005.59 1005.63 1005.66 1005.67 1005.68 1005.70 1005.74 1005.81 1005.92 1006.06 1006.22 1006.40 1006.59 1006.78 1006.96 1007.13 1007.29 1007.43 1007.57 1007.70 1007.81 1007.92 1008.01 1008.09 1008.13 1008.15 1008.12 1008.07 1007.98 1007.87 1007.73 1007.59 1007.44 1007.31 1007.18 1007.07 1006.98 1006.90
1005.34 1005.29 1005.24 1005.18 1005.14 1005.13 1005.15 1005.21 1005.32 1005.46 1005.64 1005.83 1006.03 1006.22 1006.39 1006.54 1006.67 1006.77 1006.86 1006.94 1007.01 1007.07 1007.13 1007.18 1007.21 1007.23 1007.22 1007.19 1007.14 1007.06 1006.97 1006.87 1006.77 1006.68 1006.59 1006.51 1006.45 1006.40
1004.98 1004.84 1004.70 1004.57 1004.47 1004.42 1004.41 1004.47 1004.58 1004.73 1004.92 1005.13 1005.33 1005.53 1005.69 1005.82 1005.92 1005.98 1006.02 1006.05 1006.06 1006.08 1006.10 1006.12 1006.14 1006.17 1006.19 1006.20 1006.21 1006.21 1006.21 1006.21 1006.20 1006.20 1006.21 1006.22 1006.24 1006.25
1004.61 1004.38 1004.17 1003.98 1003.83 1003.74 1003.72 1003.76 1003.87 1004.03 1004.22 1004.44 1004.64 1004.83 1004.98 1005.08 1005.14 1005.16 1005.14 1005.11 1005.07 1005.04 1005.02 1005.02 1005.04 1005.08 1005.14 1005.22 1005.32 1005.42 1005.54 1005.66 1005.79 1005.93 1006.07 1006.21 1006.33 1006.45
1004.30 1004.02 1003.76 1003.54 1003.36 1003.25 1003.22 1003.25 1003.35 1003.51 1003.69 1003.89 1004.08 1004.24 1004.35 1004.41 1004.43 1004.39 1004.32 1004.23 1004.14 1004.07 1004.02 1004.00 1004.03 1004.10 1004.21 1004.36 1004.55 1004.78 1005.03 1005.29 1005.58 1005.87 1006.15 1006.42 1006.67 1006.89
1004.13 1003.84 1003.58 1003.35 1003.18 1003.07 1003.03 1003.05 1003.14 1003.27 1003.43 1003.59 1003.73 1003.84 1003.90 1003.90 1003.85 1003.76 1003.64 1003.50 1003.37 1003.26 1003.19 1003.17 1003.21 1003.31 1003.48 1003.71 1004.00 1004.33 1004.71 1005.11 1005.53 1005.96 1006.38 1006.77 1007.13 1007.44
1004.14 1003.87 1003.64 1003.44 1003.29 1003.20 1003.17 1003.18 1003.25 1003.34 1003.44 1003.54 1003.62 1003.65 1003.64 1003.57 1003.46 1003.31 1003.14 1002.96 1002.80 1002.67 1002.60 1002.59 1002.65 1002.79 1003.01 1003.30 1003.67 1004.09 1004.56 1005.07 1005.60 1006.12 1006.64 1007.12 1007.55 1007.92
Thickness
5683 5683 5682 5682 5682 5682 5681 5679 5675 5671 5672 5678 5679 5682 5681 5679 5677 5675 5673 5671 5670 5668 5667 5666 5665 5664 5663 5662 5661 5660 5660 5660 5660 5661 5661 5662 5663 5663
5678 5677 5676 5676 5676 5676 5676 5676 5675 5671 5668 5672 5673 5674 5674 5672 5670 5669 5667 5666 5664 5663 5662 5661 5660 5658 5657 5656 5655 5654 5653 5653 5653 5654 5655 5655 5656 5657
5672 5671 5670 5670 5670 5670 5670 5670 5669 5668 5663 5665 5668 5666 5666 5664 5663 5662 5661 5660 5658 5658 5657 5656 5655 5653 5651 5650 5648 5647 5646 5646 5646 5646 5647 5649 5650 5651
5667 5665 5664 5664 5663 5663 5663 5663 5663 5662 5659 5656 5658 5657 5658 5657 5656 5655 5655 5654 5653 5652 5651 5650 5649 5647 5645 5643 5642 5641 5640 5639 5639 5639 5640 5642 5642 5643
5663 5660 5659 5658 5656 5656 5656 5657 5656 5657 5654 5651 5650 5651 5651 5651 5648 5647 5647 5646 5646 5646 5644 5643 5642 5641 5639 5637 5636 5635 5634 5633 5632 5632 5632 5633 5634 5635
5658 5656 5654 5652 5651 5651 5650 5649 5649 5648 5648 5645 5643 5643 5643 5643 5641 5638 5636 5637 5637 5638 5637 5636 5635 5634 5632 5631 5630 5628 5627 5626 5626 5625 5625 5625 5626 5626
5653 5651 5649 5647 5646 5645 5645 5643 5642 5640 5639 5638 5635 5634 5633 5632 5630 5630 5628 5628 5628 5629 5628 5628 5628 5627 5625 5624 5623 5622 5621 5620 5620 5619 5619 5618 5618 5618
5648 5647 5645 5644 5642 5640 5639 5637 5636 5634 5632 5630 5628 5626 5625 5624 5623 5622 5621 5619 5618 5621 5620 5620 5621 5619 5619 5619 5619 5617 5616 5614 5613 5612 5611 5610 5610 5609
5645 5643 5642 5640 5637 5635 5634 5633 5631 5629 5627 5624 5622 5620 5619 5619 5617 5615 5614 5612 5611 5613 5613 5612 5613 5612 5613 5615 5614 5612 5610 5608 5607 5605 5604 5603 5602 5601
5641 5639 5636 5634 5632 5630 5629 5628 5626 5624 5622 5620 5619 5617 5616 5615 5612 5610 5609 5608 5608 5608 5608 5605 5606 5606 5609 5608 5608 5607 5605 5603 5602 5600 5598 5597 5595 5594
5636 5634 5632 5629 5626 5625 5624 5622 5620 5618 5617 5616 5615 5613 5611 5609 5607 5605 5603 5601 5599 5601 5602 5599 5600 5600 5602 5602 5601 5600 5599 5597 5595 5594 5592 5591 5589 5587
5632 5630 5627 5624 5621 5620 5618 5616 5614 5612 5612 5611 5609 5608 5606 5605 5603 5600 5598 5595 5593 5593 5596 5594 5593 5593 5593 5595 5595 5593 5592 5590 5589 5587 5586 5584 5582 5579
5629 5625 5622 5619 5616 5615 5613 5611 5609 5608 5607 5607 5606 5605 5603 5601 5600 5597 5595 5592 5589 5588 5589 5588 5586 5585 5584 5585 5587 5587 5586 5584 5583 5581 5579 5578 5577 5574
5625 5621 5618 5614 5612 5610 5609 5608 5607 5605 5604 5603 5602 5600 5599 5597 5595 5594 5592 5589 5587 5585 5584 5582 5580 5578 5576 5576 5578 5580 5579 5578 5577 5576 5575 5573 5572 5570
5620 5617 5613 5610 5609 5608 5607 5606 5604 5603 5601 5600 5598 5597 5595 5593 5592 5590 5588 5586 5583 5582 5581 5579 5576 5573 5570 5569 5569 5570 5570 5570 5570 5569 5568 5568 5567 5566
5616 5613 5610 5608 5607 5607 5606 5604 5602 5601 5599 5597 5596 5594 5592 5590 5587 5585 5582 5580 5578 5577 5577 5574 5572 5568 5565 5563 5562 5561 5562 5561 5562 5562 5561 5561 5562 5562
5611 5611 5610 5609 5607 5607 5606 5604 5602 5599 5596 5593 5592 5590 5588 5585 5583 5581 5578 5576 5572 5571 5570 5569 5566 5564 5561 5558 5556 5555 5555 5555 5555 5555 5554 5554 5554 5555
5609 5610 5610 5609 5607 5605 5603 5601 5599 5596 5593 5591 5588 5585 5583 5580 5578 5576 5574 5571 5567 5565 5564 5562 5560 5557 5555 5554 5551 5550 5549 5549 5549 5549 5548 5547 5547 5549
5608 5609 5608 5607 5605 5603 5600 5598 5596 5593 5590 5587 5584 5582 5579 5577 5574 5572 5569 5566 5563 5561 5560 5558 5554 5551 5547 5547 5548 5546 5543 5543 5543 5542 5542 5542 5542 5543
5609 5608 5607 5605 5602 5600 5597 5595 5592 5589 5585 5582 5580 5578 5576 5573 5571 5568 5565 5562 5559 5558 5556 5553 5550 5546 5542 5541 5542 5542 5540 5538 5537 5536 5537 5537 5537 5537
5608 5606 5604 5602 5599 5596 5593 5591 5588 5585 5581 5578 5576 5573 5571 5568 5566 5564 5561 5557 5554 5553 5550 5549 5547 5544 5542 5539 5537 5537 5536 5534 5533 5531 5531 5531 5531 5531
5605 5603 5601 5598 5595 5592 5589 5586 5584 5581 5577 5574 5572 5569 5567 5565 5562 5560 5557 5554 5552 5550 5547 5545 5544 5541 5538 5534 5533 5532 5531 5529 5528 5527 5525 5525 5524 5524
5600 5599 5597 5594 5591 5588 5585 5582 5579 5576 5573 5570 5567 5564 5562 5560 5558 5556 5554 5551 5548 5546 5543 5540 5538 5536 5533 5531 5529 5528 5526 5525 5524 5522 5521 5521 5521 5520